UAL5379 KSMF-KLAX

Flight info

Callsign UAL5379
Flight time 1h 0m
Altitude 37000
Route FTHIL3 FRA REBRG IRNMN2
Aircraft A320/M-SDE3FGHIRWY/LB1

Departure

Time 2026-05-06 03:14
Airport Sacramento International Airport (KSMF)

Arrival

Time 2026-05-06 04:14
Airport Los Angeles International Airport (KLAX)
Time Latitude Longitude Altitude Speed Heading
2026-05-06 02:44 38.69614 -121.59243 29 ft 0 kts 181°
2026-05-06 03:02 38.69637 -121.59242 29 ft 4 kts 185°
2026-05-06 03:02 38.69663 -121.59237 29 ft 4 kts 194°
2026-05-06 03:03 38.69688 -121.59225 29 ft 4 kts 223°
2026-05-06 03:03 38.69697 -121.59207 29 ft 0 kts 270°
2026-05-06 03:07 38.69697 -121.59223 29 ft 4 kts 270°
2026-05-06 03:07 38.69697 -121.59338 29 ft 20 kts 270°
2026-05-06 03:08 38.69697 -121.59544 29 ft 15 kts 269°
2026-05-06 03:08 38.69693 -121.59636 29 ft 11 kts 266°
2026-05-06 03:08 38.69691 -121.59746 29 ft 13 kts 284°
2026-05-06 03:08 38.69745 -121.59854 29 ft 17 kts 343°
2026-05-06 03:09 38.69889 -121.59862 29 ft 25 kts
2026-05-06 03:09 38.70086 -121.59859 29 ft 32 kts
2026-05-06 03:09 38.70307 -121.59855 29 ft 27 kts
2026-05-06 03:09 38.70498 -121.59852 29 ft 26 kts
2026-05-06 03:10 38.70665 -121.59848 29 ft 20 kts
2026-05-06 03:10 38.70721 -121.59956 29 ft 2 kts 267°
2026-05-06 03:11 38.70721 -121.59958 29 ft 1 kts 267°
2026-05-06 03:12 38.70721 -121.59969 28 ft 1 kts 267°
2026-05-06 03:12 38.70718 -121.60049 28 ft 16 kts 261°
2026-05-06 03:12 38.70652 -121.60108 28 ft 0 kts 181°
2026-05-06 03:12 38.70633 -121.60109 29 ft 17 kts 181°
2026-05-06 03:13 38.70249 -121.60117 31 ft 88 kts 181°
2026-05-06 03:13 38.69459 -121.60130 28 ft 137 kts 181°
2026-05-06 03:13 38.68406 -121.60180 246 ft 164 kts 181°
2026-05-06 03:13 38.67152 -121.60241 491 ft 196 kts 182°
2026-05-06 03:14 38.65684 -121.60132 767 ft 230 kts 165°
2026-05-06 03:14 38.64250 -121.59092 1219 ft 246 kts 135°
2026-05-06 03:14 38.63257 -121.57449 2239 ft 226 kts 122°
2026-05-06 03:14 38.62509 -121.55686 3158 ft 226 kts 116°
2026-05-06 03:15 38.61665 -121.53916 3640 ft 249 kts 132°
2026-05-06 03:15 38.60553 -121.52134 4305 ft 263 kts 120°
2026-05-06 03:15 38.59762 -121.49994 5191 ft 269 kts 111°
2026-05-06 03:15 38.59037 -121.47753 6014 ft 277 kts 110°
2026-05-06 03:16 38.58293 -121.45445 6825 ft 284 kts 110°
2026-05-06 03:16 38.57529 -121.43111 7686 ft 287 kts 113°
2026-05-06 03:16 38.56370 -121.40996 8566 ft 295 kts 133°
2026-05-06 03:16 38.54673 -121.39482 9443 ft 301 kts 146°
2026-05-06 03:17 38.52849 -121.38143 10273 ft 306 kts 147°
2026-05-06 03:17 38.50929 -121.36753 10568 ft 329 kts 147°
2026-05-06 03:17 38.48876 -121.35277 10903 ft 346 kts 147°
2026-05-06 03:17 38.46755 -121.33759 11546 ft 352 kts 147°
2026-05-06 03:18 38.44606 -121.32220 12258 ft 356 kts 147°
2026-05-06 03:18 38.42430 -121.30661 12968 ft 360 kts 147°
2026-05-06 03:18 38.40234 -121.29086 13690 ft 364 kts 147°
2026-05-06 03:18 38.38016 -121.27493 14338 ft 368 kts 147°
2026-05-06 03:19 38.35774 -121.25883 14969 ft 371 kts 147°
2026-05-06 03:19 38.33514 -121.24262 15592 ft 375 kts 147°
2026-05-06 03:19 38.31231 -121.22626 16189 ft 378 kts 147°
2026-05-06 03:19 38.28926 -121.20977 16817 ft 382 kts 147°
2026-05-06 03:20 38.24259 -121.17644 18090 ft 388 kts 147°
2026-05-06 03:20 38.21892 -121.15952 18676 ft 391 kts 147°
2026-05-06 03:20 38.19507 -121.14249 19216 ft 395 kts 147°
2026-05-06 03:21 38.17096 -121.12527 19761 ft 400 kts 147°
2026-05-06 03:21 38.14662 -121.10787 20318 ft 404 kts 147°
2026-05-06 03:21 38.12203 -121.09029 20859 ft 408 kts 147°
2026-05-06 03:21 38.09718 -121.07257 21389 ft 412 kts 147°
2026-05-06 03:22 38.07242 -121.05497 21902 ft 416 kts 146°
2026-05-06 03:22 38.04705 -121.03699 22420 ft 420 kts 146°
2026-05-06 03:22 38.02169 -121.01900 22965 ft 422 kts 146°
2026-05-06 03:22 37.99574 -121.00060 23494 ft 426 kts 146°
2026-05-06 03:23 37.96975 -120.98218 23929 ft 429 kts 146°
2026-05-06 03:23 37.94357 -120.96363 24361 ft 432 kts 146°
2026-05-06 03:23 37.91725 -120.94501 24801 ft 435 kts 146°
2026-05-06 03:23 37.89082 -120.92631 25219 ft 437 kts 146°
2026-05-06 03:24 37.86418 -120.90744 25640 ft 439 kts 146°
2026-05-06 03:24 37.83743 -120.88849 26052 ft 442 kts 145°
2026-05-06 03:24 37.81051 -120.86951 26446 ft 444 kts 146°
2026-05-06 03:24 37.78342 -120.85046 26840 ft 447 kts 145°
2026-05-06 03:25 37.75619 -120.83127 27216 ft 449 kts 145°
2026-05-06 03:25 37.72881 -120.81196 27587 ft 452 kts 145°
2026-05-06 03:25 37.70123 -120.79253 27984 ft 455 kts 145°
2026-05-06 03:25 37.67356 -120.77308 28400 ft 456 kts 145°
2026-05-06 03:26 37.64579 -120.75360 28783 ft 458 kts 145°
2026-05-06 03:26 37.61789 -120.73407 29156 ft 461 kts 145°
2026-05-06 03:26 37.58967 -120.71431 29524 ft 463 kts 145°
2026-05-06 03:26 37.56145 -120.69455 29887 ft 466 kts 145°
2026-05-06 03:27 37.53297 -120.67461 30223 ft 468 kts 144°
2026-05-06 03:27 37.50488 -120.65497 30537 ft 470 kts 144°
2026-05-06 03:27 37.47579 -120.63466 30838 ft 472 kts 144°
2026-05-06 03:27 37.44743 -120.61487 31138 ft 474 kts 144°
2026-05-06 03:28 37.41861 -120.59480 31546 ft 473 kts 144°
2026-05-06 03:28 37.38988 -120.57480 31967 ft 471 kts 144°
2026-05-06 03:28 37.36121 -120.55485 32401 ft 471 kts 144°
2026-05-06 03:28 37.33261 -120.53498 32835 ft 469 kts 144°
2026-05-06 03:29 37.30402 -120.51516 33264 ft 469 kts 144°
2026-05-06 03:29 37.27567 -120.49551 33677 ft 468 kts 144°
2026-05-06 03:29 37.24707 -120.47568 34093 ft 467 kts 144°
2026-05-06 03:29 37.21864 -120.45598 34457 ft 467 kts 144°
2026-05-06 03:30 37.19018 -120.43628 34806 ft 466 kts 144°
2026-05-06 03:30 37.16178 -120.41661 35170 ft 465 kts 144°
2026-05-06 03:30 37.13348 -120.39702 35521 ft 465 kts 144°
2026-05-06 03:30 37.10514 -120.37742 35854 ft 464 kts 144°
2026-05-06 03:31 37.07685 -120.35787 36174 ft 464 kts 144°
2026-05-06 03:31 37.04856 -120.33835 36479 ft 464 kts 144°
2026-05-06 03:31 37.02030 -120.31888 36777 ft 464 kts 144°
2026-05-06 03:31 36.99196 -120.29938 37022 ft 465 kts 144°
2026-05-06 03:32 36.93521 -120.26039 37072 ft 467 kts 144°
2026-05-06 03:32 36.87827 -120.22135 37072 ft 467 kts 144°
2026-05-06 03:33 36.82166 -120.18259 37076 ft 467 kts 145°
2026-05-06 03:33 36.76477 -120.14379 37069 ft 466 kts 145°
2026-05-06 03:34 36.70784 -120.10498 37092 ft 466 kts 144°
2026-05-06 03:34 36.65088 -120.06614 37086 ft 467 kts 144°
2026-05-06 03:35 36.59395 -120.02734 37079 ft 467 kts 145°
2026-05-06 03:35 36.53657 -119.98941 37124 ft 470 kts 149°
2026-05-06 03:36 36.47860 -119.95289 37063 ft 464 kts 144°
2026-05-06 03:36 36.42289 -119.91267 37080 ft 463 kts 143°
2026-05-06 03:37 36.36695 -119.87299 37079 ft 465 kts 144°
2026-05-06 03:37 36.30998 -119.83453 37080 ft 465 kts 146°
2026-05-06 03:38 36.25283 -119.79662 37095 ft 465 kts 146°
2026-05-06 03:38 36.19629 -119.75893 37088 ft 465 kts 145°
2026-05-06 03:39 36.13954 -119.72082 37084 ft 464 kts 145°
2026-05-06 03:39 36.08283 -119.68262 37093 ft 464 kts 145°
2026-05-06 03:40 36.02599 -119.64446 37080 ft 464 kts 146°
2026-05-06 03:40 35.97837 -119.61272 37075 ft 464 kts 146°
2026-05-06 03:41 35.91761 -119.58646 37079 ft 479 kts 171°
2026-05-06 03:41 35.85031 -119.58269 37077 ft 481 kts 174°
2026-05-06 03:42 35.78327 -119.58032 36496 ft 484 kts 178°
2026-05-06 03:42 35.74977 -119.58648 35974 ft 492 kts 193°
2026-05-06 03:42 35.71804 -119.60348 35733 ft 507 kts 213°
2026-05-06 03:43 35.69164 -119.63252 35510 ft 513 kts 232°
2026-05-06 03:43 35.66994 -119.66684 35257 ft 517 kts 229°
2026-05-06 03:43 35.64287 -119.69555 35014 ft 514 kts 208°
2026-05-06 03:43 35.61037 -119.71289 34780 ft 508 kts 193°
2026-05-06 03:44 35.57626 -119.72350 34541 ft 504 kts 187°
2026-05-06 03:44 35.54186 -119.73147 34307 ft 503 kts 185°
2026-05-06 03:44 35.50750 -119.73964 34070 ft 503 kts 187°
2026-05-06 03:44 35.47346 -119.74951 33811 ft 503 kts 190°
2026-05-06 03:45 35.43979 -119.76141 33553 ft 503 kts 193°
2026-05-06 03:45 35.40655 -119.77484 33284 ft 503 kts 194°
2026-05-06 03:45 35.37358 -119.78902 33023 ft 501 kts 195°
2026-05-06 03:45 35.34026 -119.80012 32751 ft 491 kts 183°
2026-05-06 03:46 35.30670 -119.80217 32493 ft 476 kts 168°
2026-05-06 03:46 35.27475 -119.79499 32235 ft 459 kts 154°
2026-05-06 03:46 35.24576 -119.78031 31982 ft 445 kts 142°
2026-05-06 03:46 35.22028 -119.75998 31758 ft 432 kts 133°
2026-05-06 03:47 35.19655 -119.73758 31505 ft 430 kts 133°
2026-05-06 03:47 35.17280 -119.71538 31258 ft 428 kts 133°
2026-05-06 03:47 35.14912 -119.69341 31007 ft 426 kts 133°
2026-05-06 03:47 35.12555 -119.67158 30759 ft 424 kts 133°
2026-05-06 03:48 35.10210 -119.64983 30522 ft 422 kts 133°
2026-05-06 03:48 35.07872 -119.62816 30287 ft 420 kts 133°
2026-05-06 03:48 35.05549 -119.60662 30033 ft 418 kts 133°
2026-05-06 03:48 35.03237 -119.58515 29776 ft 417 kts 133°
2026-05-06 03:49 35.00931 -119.56371 29495 ft 416 kts 133°
2026-05-06 03:49 34.98631 -119.54231 29214 ft 415 kts 133°
2026-05-06 03:49 34.96346 -119.52105 28958 ft 412 kts 133°
2026-05-06 03:49 34.94069 -119.49992 28679 ft 411 kts 133°
2026-05-06 03:50 34.91800 -119.47886 28406 ft 409 kts 133°
2026-05-06 03:50 34.89529 -119.45795 28135 ft 408 kts 134°
2026-05-06 03:50 34.87275 -119.43764 27876 ft 408 kts 134°
2026-05-06 03:50 34.84985 -119.41731 27642 ft 407 kts 135°
2026-05-06 03:51 34.82696 -119.39708 27364 ft 407 kts 135°
2026-05-06 03:51 34.80413 -119.37688 26931 ft 404 kts 135°
2026-05-06 03:51 34.78144 -119.35677 26508 ft 402 kts 135°
2026-05-06 03:51 34.75892 -119.33675 26070 ft 400 kts 135°
2026-05-06 03:52 34.73653 -119.31680 25660 ft 398 kts 136°
2026-05-06 03:52 34.71417 -119.29704 25241 ft 397 kts 136°
2026-05-06 03:52 34.69180 -119.27746 24835 ft 396 kts 137°
2026-05-06 03:52 34.66944 -119.25801 24396 ft 395 kts 137°
2026-05-06 03:53 34.64713 -119.23865 24042 ft 393 kts 138°
2026-05-06 03:53 34.62481 -119.21934 23495 ft 395 kts 138°
2026-05-06 03:53 34.60260 -119.20022 23016 ft 391 kts 139°
2026-05-06 03:53 34.58038 -119.18118 22590 ft 387 kts 139°
2026-05-06 03:54 34.55854 -119.16245 21956 ft 382 kts 139°
2026-05-06 03:54 34.53725 -119.14391 21454 ft 375 kts 138°
2026-05-06 03:54 34.51619 -119.12527 20998 ft 374 kts 138°
2026-05-06 03:54 34.49534 -119.10669 20533 ft 370 kts 139°
2026-05-06 03:55 34.47467 -119.08824 20049 ft 368 kts 139°
2026-05-06 03:55 34.45417 -119.06999 19588 ft 365 kts 139°
2026-05-06 03:55 34.43364 -119.05177 19118 ft 365 kts 140°
2026-05-06 03:55 34.41321 -119.03387 18667 ft 362 kts 140°
2026-05-06 03:56 34.39278 -119.01613 18162 ft 361 kts 141°
2026-05-06 03:56 34.37239 -118.99853 17654 ft 359 kts 141°
2026-05-06 03:56 34.35219 -118.98113 17207 ft 355 kts 141°
2026-05-06 03:56 34.33220 -118.96382 16720 ft 352 kts 141°
2026-05-06 03:57 34.31249 -118.94627 16191 ft 351 kts 141°
2026-05-06 03:57 34.29326 -118.92878 15746 ft 349 kts 140°
2026-05-06 03:57 34.27393 -118.91103 15214 ft 349 kts 140°
2026-05-06 03:57 34.25474 -118.89345 14848 ft 344 kts 141°
2026-05-06 03:58 34.23587 -118.87616 14587 ft 333 kts 141°
2026-05-06 03:58 34.21785 -118.85961 13960 ft 325 kts 141°
2026-05-06 03:58 34.19966 -118.84283 13014 ft 329 kts 140°
2026-05-06 03:58 34.18194 -118.82649 12642 ft 313 kts 140°
2026-05-06 03:59 34.16494 -118.81084 12389 ft 305 kts 139°
2026-05-06 03:59 34.14867 -118.79453 12136 ft 303 kts 136°
2026-05-06 03:59 34.13299 -118.77755 11884 ft 302 kts 135°
2026-05-06 03:59 34.11754 -118.76034 11637 ft 301 kts 134°
2026-05-06 04:00 34.10218 -118.74319 11380 ft 300 kts 134°
2026-05-06 04:00 34.08683 -118.72617 11138 ft 299 kts 134°
2026-05-06 04:00 34.07148 -118.70930 10915 ft 298 kts 134°
2026-05-06 04:00 34.05643 -118.69287 10672 ft 294 kts 134°
2026-05-06 04:01 34.04212 -118.67580 10451 ft 285 kts 124°
2026-05-06 04:01 34.03199 -118.65546 10267 ft 277 kts 109°
2026-05-06 04:01 34.02687 -118.63344 10003 ft 271 kts 95°
2026-05-06 04:01 34.02481 -118.61124 9720 ft 270 kts 94°
2026-05-06 04:02 34.02273 -118.58879 9439 ft 269 kts 94°
2026-05-06 04:02 34.02060 -118.56634 9165 ft 269 kts 94°
2026-05-06 04:02 34.01847 -118.54389 8803 ft 271 kts 94°
2026-05-06 04:02 34.01627 -118.52089 8258 ft 278 kts 95°
2026-05-06 04:03 34.01405 -118.49773 7816 ft 273 kts 95°
2026-05-06 04:03 34.01191 -118.47575 7654 ft 255 kts 95°
2026-05-06 04:03 34.01090 -118.45531 7537 ft 235 kts 83°
2026-05-06 04:03 34.01361 -118.43643 7250 ft 225 kts 76°
2026-05-06 04:04 34.01681 -118.41819 6986 ft 220 kts 77°
2026-05-06 04:04 34.01988 -118.40044 6708 ft 215 kts 77°
2026-05-06 04:04 34.02291 -118.38287 6413 ft 212 kts 77°
2026-05-06 04:04 34.02587 -118.36570 6134 ft 207 kts 77°
2026-05-06 04:05 34.02843 -118.34896 6021 ft 196 kts 81°
2026-05-06 04:05 34.03014 -118.33338 6014 ft 182 kts 82°
2026-05-06 04:05 34.03180 -118.31709 6028 ft 206 kts 82°
2026-05-06 04:05 34.03357 -118.29973 5929 ft 214 kts 82°
2026-05-06 04:06 34.03543 -118.28184 5589 ft 213 kts 82°
2026-05-06 04:06 34.03727 -118.26427 5260 ft 209 kts 83°
2026-05-06 04:06 34.03911 -118.24695 5008 ft 208 kts 82°
2026-05-06 04:06 34.04100 -118.22976 4752 ft 206 kts 82°
2026-05-06 04:07 34.04289 -118.21267 4497 ft 205 kts 82°
2026-05-06 04:07 34.04479 -118.19556 4237 ft 206 kts 82°
2026-05-06 04:07 34.04668 -118.17854 3979 ft 206 kts 82°
2026-05-06 04:07 34.04856 -118.16161 3726 ft 206 kts 83°
2026-05-06 04:08 34.04737 -118.14468 3461 ft 204 kts 114°
2026-05-06 04:08 34.03834 -118.13219 3213 ft 200 kts 152°
2026-05-06 04:08 34.02542 -118.12698 2965 ft 193 kts 172°
2026-05-06 04:08 34.01227 -118.12681 2717 ft 187 kts 191°
2026-05-06 04:09 34.00022 -118.13116 2604 ft 174 kts 206°
2026-05-06 04:09 33.99005 -118.13914 2615 ft 181 kts 222°
2026-05-06 04:09 33.98180 -118.15059 2611 ft 182 kts 238°
2026-05-06 04:09 33.97659 -118.16449 2625 ft 183 kts 255°
2026-05-06 04:10 33.97458 -118.17945 2625 ft 181 kts 263°
2026-05-06 04:10 33.97307 -118.19463 2622 ft 183 kts 263°
2026-05-06 04:10 33.97155 -118.20978 2627 ft 182 kts 263°
2026-05-06 04:10 33.97003 -118.22493 2627 ft 183 kts 263°
2026-05-06 04:11 33.96852 -118.23995 2632 ft 182 kts 263°
2026-05-06 04:11 33.96700 -118.25508 2516 ft 183 kts 263°
2026-05-06 04:11 33.96546 -118.27031 2311 ft 183 kts 263°
2026-05-06 04:11 33.96394 -118.28539 2075 ft 181 kts 263°
2026-05-06 04:12 33.96242 -118.30042 1839 ft 181 kts 262°
2026-05-06 04:12 33.96090 -118.31543 1590 ft 177 kts 262°
2026-05-06 04:12 33.95947 -118.32957 1362 ft 164 kts 262°
2026-05-06 04:12 33.95812 -118.34279 1140 ft 157 kts 262°
2026-05-06 04:13 33.95681 -118.35565 958 ft 152 kts 262°
2026-05-06 04:13 33.95552 -118.36833 742 ft 151 kts 261°
2026-05-06 04:13 33.95431 -118.38048 510 ft 146 kts 261°
2026-05-06 04:13 33.95314 -118.39207 294 ft 134 kts 260°
2026-05-06 04:14 33.95202 -118.40264 123 ft 120 kts 260°
2026-05-06 04:14 33.95110 -118.41145 93 ft 89 kts 263°
2026-05-06 04:14 33.95055 -118.41692 94 ft 53 kts 263°
2026-05-06 04:14 33.94985 -118.42124 95 ft 44 kts 241°
2026-05-06 04:15 33.94874 -118.42264 95 ft 0 kts 214°
2026-05-06 04:15 33.94833 -118.42276 99 ft 15 kts 185°
2026-05-06 04:15 33.94693 -118.42262 95 ft 14 kts 179°
2026-05-06 04:15 33.94613 -118.42214 93 ft 14 kts 103°
2026-05-06 04:16 33.94617 -118.42176 94 ft 2 kts 25°
2026-05-06 04:16 33.94677 -118.42197 93 ft 7 kts 43°
2026-05-06 04:16 33.94696 -118.42108 94 ft 15 kts 79°
2026-05-06 04:16 33.94710 -118.41969 93 ft 18 kts 77°
2026-05-06 04:17 33.94724 -118.41809 93 ft 20 kts 84°
2026-05-06 04:17 33.94742 -118.41632 93 ft 22 kts 86°
2026-05-06 04:17 33.94661 -118.41617 93 ft 18 kts 248°
2026-05-06 04:17 33.94579 -118.41708 93 ft 19 kts 177°
2026-05-06 04:18 33.94547 -118.41609 93 ft 0 kts 90°